| time (UTC) | temp F | wind direction | speed MPH | gust MPH | rain 1hr in | rain 24hr in | rain mn in | humidity % | barometer mb |
| 20260505153326 | 73 | 191 | 0.0 | 1.0 | 0.00 | 0.00 | 0.00 | 91 | 1012.2 |
| 20260505152823 | 73 | 191 | 1.0 | 2.0 | 0.00 | 0.00 | 0.00 | 91 | 1012.2 |
| 20260505152320 | 73 | 198 | 1.0 | 1.0 | 0.00 | 0.00 | 0.00 | 91 | 1012.3 |
| 20260505151819 | 73 | 173 | 1.0 | 2.0 | 0.00 | 0.00 | 0.00 | 91 | 1012.1 |
| 20260505151317 | 73 | 198 | 1.0 | 2.0 | 0.00 | 0.00 | 0.00 | 91 | 1012.0 |
| 20260505150813 | 73 | 187 | 2.0 | 3.0 | 0.00 | 0.00 | 0.00 | 91 | 1012.1 |
| 20260505150310 | 72 | 207 | 2.0 | 2.0 | 0.00 | 0.00 | 0.00 | 91 | 1011.9 |
| 20260505140235 | 72 | 205 | 1.0 | 2.0 | 0.00 | 0.00 | 0.00 | 92 | 1011.8 |
| 20260505130159 | 71 | 184 | 1.0 | 2.0 | 0.00 | 0.00 | 0.00 | 92 | 1011.2 |
| 20260505124649 | 71 | 199 | 0.0 | 0.0 | 0.00 | 0.00 | 0.00 | 92 | 1011.0 |
| 20260505124145 | 71 | 183 | 1.0 | 2.0 | 0.00 | 0.00 | 0.00 | 92 | 1011.0 |
| 20260505123641 | 71 | 212 | 1.0 | 1.0 | 0.00 | 0.00 | 0.00 | 92 | 1011.0 |
| 20260505123139 | 71 | 164 | 3.0 | 5.0 | 0.00 | 0.00 | 0.00 | 92 | 1010.8 |
| 20260505122635 | 71 | 144 | 1.0 | 2.0 | 0.00 | 0.00 | 0.00 | 92 | 1010.8 |
| 20260505122132 | 71 | 278 | 2.0 | 3.0 | 0.00 | 0.00 | 0.00 | 92 | 1010.7 |
| 20260505121628 | 71 | 201 | 2.0 | 2.0 | 0.00 | 0.00 | 0.00 | 92 | 1010.5 |
| 20260505121125 | 71 | 196 | 3.0 | 5.0 | 0.00 | 0.00 | 0.00 | 92 | 1010.6 |
| 20260505120622 | 71 | 198 | 3.0 | 3.0 | 0.00 | 0.00 | 0.00 | 92 | 1010.4 |
| 20260505120118 | 71 | 193 | 2.0 | 3.0 | 0.00 | 0.00 | 0.00 | 92 | 1010.3 |
| 20260505115612 | 71 | 208 | 0.0 | 0.0 | 0.00 | 0.00 | 0.00 | 92 | 1010.4 |
| 20260505115109 | 71 | 225 | 2.0 | 2.0 | 0.00 | 0.00 | 0.00 | 92 | 1010.3 |
| 20260505114606 | 71 | 190 | 3.0 | 5.0 | 0.00 | 0.00 | 0.00 | 92 | 1010.5 |
| 20260505114103 | 71 | 199 | 2.0 | 2.0 | 0.00 | 0.00 | 0.00 | 92 | 1010.4 |
| 20260505113559 | 71 | 217 | 1.0 | 1.0 | 0.00 | 0.00 | 0.00 | 93 | 1010.2 |
| 20260505113056 | 71 | 238 | 0.0 | 1.0 | 0.00 | 0.00 | 0.00 | 93 | 1010.5 |
| 20260505112552 | 71 | 176 | 2.0 | 2.0 | 0.00 | 0.00 | 0.00 | 93 | 1010.4 |
| 20260505112050 | 71 | 151 | 3.0 | 3.0 | 0.00 | 0.00 | 0.00 | 93 | 1010.4 |
| 20260505111544 | 71 | 170 | 5.0 | 6.0 | 0.00 | 0.00 | 0.00 | 93 | 1010.4 |
| 20260505111040 | 71 | 211 | 1.0 | 2.0 | 0.00 | 0.00 | 0.00 | 93 | 1010.6 |
| 20260505110537 | 71 | 205 | 2.0 | 3.0 | 0.00 | 0.00 | 0.00 | 93 | 1010.2 |
| 20260505102009 | 71 | 187 | 3.0 | 3.0 | 0.00 | 0.00 | 0.00 | 91 | 1010.8 |
| 20260505101508 | 71 | 202 | 0.0 | 1.0 | 0.00 | 0.00 | 0.00 | 91 | 1010.4 |
| 20260505101004 | 71 | 198 | 3.0 | 5.0 | 0.00 | 0.00 | 0.00 | 91 | 1010.5 |
| 20260505100501 | 71 | 187 | 2.0 | 2.0 | 0.00 | 0.00 | 0.00 | 91 | 1010.8 |
| 20260505095957 | 71 | 204 | 0.0 | 1.0 | 0.00 | 0.00 | 0.00 | 91 | 1010.6 |
| 20260505095454 | 71 | 198 | 2.0 | 2.0 | 0.00 | 0.00 | 0.00 | 91 | 1010.6 |
| 20260505094950 | 71 | 200 | 0.0 | 0.0 | 0.00 | 0.00 | 0.00 | 91 | 1010.7 |
| 20260505094447 | 71 | 211 | 2.0 | 2.0 | 0.00 | 0.00 | 0.00 | 91 | 1010.7 |
| 20260505093943 | 71 | 183 | 0.0 | 0.0 | 0.00 | 0.00 | 0.00 | 91 | 1010.9 |
| 20260505093440 | 71 | 181 | 3.0 | 3.0 | 0.00 | 0.00 | 0.00 | 91 | 1010.5 |
| 20260505092937 | 71 | 180 | 2.0 | 2.0 | 0.00 | 0.00 | 0.00 | 91 | 1010.8 |
| 20260505092435 | 71 | 207 | 4.0 | 5.0 | 0.00 | 0.00 | 0.00 | 91 | 1010.8 |
| 20260505091932 | 71 | 210 | 2.0 | 2.0 | 0.00 | 0.00 | 0.00 | 91 | 1010.9 |
| 20260505091430 | 71 | 178 | 1.0 | 1.0 | 0.00 | 0.00 | 0.00 | 91 | 1011.0 |
| 20260505090927 | 71 | 134 | 3.0 | 5.0 | 0.00 | 0.00 | 0.00 | 91 | 1010.8 |
| 20260505090425 | 71 | 208 | 1.0 | 2.0 | 0.00 | 0.00 | 0.00 | 91 | 1010.6 |
| 20260505085922 | 71 | 210 | 2.0 | 3.0 | 0.00 | 0.00 | 0.00 | 91 | 1011.0 |
| 20260505085420 | 71 | 203 | 4.0 | 5.0 | 0.00 | 0.00 | 0.00 | 91 | 1010.9 |
| 20260505084918 | 71 | 186 | 3.0 | 5.0 | 0.00 | 0.00 | 0.00 | 91 | 1010.9 |
| 20260505084416 | 71 | 208 | 2.0 | 2.0 | 0.00 | 0.00 | 0.00 | 91 | 1011.0 |
| 20260505083914 | 71 | 208 | 2.0 | 2.0 | 0.00 | 0.00 | 0.00 | 91 | 1011.2 |
| 20260505083411 | 71 | 174 | 2.0 | 2.0 | 0.00 | 0.00 | 0.00 | 91 | 1010.9 |
| 20260505082907 | 71 | 199 | 0.0 | 1.0 | 0.00 | 0.00 | 0.00 | 91 | 1010.9 |
| 20260505082403 | 71 | 195 | 5.0 | 9.0 | 0.00 | 0.00 | 0.00 | 91 | 1011.1 |
| 20260505081900 | 71 | 199 | 3.0 | 6.0 | 0.00 | 0.00 | 0.00 | 91 | 1011.0 |
| 20260505081357 | 71 | 206 | 4.0 | 6.0 | 0.00 | 0.00 | 0.00 | 91 | 1011.3 |
| 20260505080853 | 71 | 115 | 4.0 | 5.0 | 0.00 | 0.00 | 0.00 | 91 | 1011.3 |
| 20260505080349 | 71 | 207 | 3.0 | 3.0 | 0.00 | 0.00 | 0.00 | 90 | 1011.3 |
| 20260505075845 | 71 | 171 | 2.0 | 2.0 | 0.00 | 0.00 | 0.00 | 90 | 1011.3 |
| 20260505075342 | 71 | 205 | 1.0 | 3.0 | 0.00 | 0.00 | 0.00 | 90 | 1011.3 |
| 20260505074839 | 71 | 191 | 1.0 | 2.0 | 0.00 | 0.00 | 0.00 | 90 | 1011.5 |
| 20260505074337 | 71 | 241 | 3.0 | 5.0 | 0.00 | 0.00 | 0.00 | 90 | 1011.7 |
| 20260505073834 | 71 | 217 | 1.0 | 1.0 | 0.00 | 0.00 | 0.00 | 90 | 1011.5 |
| 20260505073332 | 71 | 206 | 2.0 | 2.0 | 0.00 | 0.00 | 0.00 | 89 | 1011.6 |
| 20260505072828 | 71 | 160 | 3.0 | 6.0 | 0.00 | 0.00 | 0.00 | 90 | 1011.6 |
| 20260505072324 | 71 | 198 | 3.0 | 5.0 | 0.00 | 0.00 | 0.00 | 89 | 1011.8 |
| 20260505071820 | 71 | 233 | 1.0 | 2.0 | 0.00 | 0.00 | 0.00 | 89 | 1011.5 |
| 20260505071317 | 71 | 212 | 2.0 | 2.0 | 0.00 | 0.00 | 0.00 | 89 | 1011.9 |
| 20260505070816 | 71 | 206 | 1.0 | 1.0 | 0.00 | 0.00 | 0.00 | 89 | 1011.8 |
| 20260505070312 | 71 | 212 | 2.0 | 3.0 | 0.00 | 0.00 | 0.00 | 89 | 1012.0 |
| 20260505065807 | 71 | 142 | 6.0 | 9.0 | 0.00 | 0.00 | 0.00 | 89 | 1012.0 |
| 20260505065304 | 72 | 206 | 1.0 | 2.0 | 0.00 | 0.00 | 0.00 | 89 | 1011.9 |
| 20260505064801 | 72 | 160 | 5.0 | 8.0 | 0.00 | 0.00 | 0.00 | 89 | 1012.1 |
| 20260505064258 | 72 | 201 | 2.0 | 2.0 | 0.00 | 0.00 | 0.00 | 89 | 1012.0 |
| 20260505063756 | 72 | 153 | 3.0 | 5.0 | 0.00 | 0.00 | 0.00 | 89 | 1012.1 |
| 20260505063252 | 72 | 211 | 1.0 | 3.0 | 0.00 | 0.00 | 0.00 | 89 | 1012.2 |
| 20260505062749 | 72 | 142 | 3.0 | 6.0 | 0.00 | 0.00 | 0.00 | 89 | 1012.1 |
| 20260505062246 | 72 | 156 | 4.0 | 7.0 | 0.00 | 0.00 | 0.00 | 88 | 1012.2 |
| 20260505061743 | 72 | 234 | 5.0 | 7.0 | 0.00 | 0.00 | 0.00 | 88 | 1012.2 |
| 20260505061241 | 72 | 166 | 4.0 | 6.0 | 0.00 | 0.00 | 0.00 | 88 | 1012.4 |
| 20260505060738 | 72 | 211 | 3.0 | 5.0 | 0.00 | 0.00 | 0.00 | 88 | 1012.6 |
| 20260505060235 | 72 | 166 | 5.0 | 8.0 | 0.00 | 0.00 | 0.00 | 88 | 1012.4 |
| 20260505055730 | 72 | 219 | 0.0 | 0.0 | 0.00 | 0.00 | 0.00 | 88 | 1012.6 |
| 20260505055227 | 72 | 206 | 5.0 | 6.0 | 0.00 | 0.00 | 0.00 | 88 | 1012.3 |
| 20260505054724 | 72 | 215 | 2.0 | 2.0 | 0.00 | 0.00 | 0.00 | 88 | 1012.6 |
| 20260505054222 | 72 | 209 | 3.0 | 5.0 | 0.00 | 0.00 | 0.00 | 88 | 1012.7 |
| 20260505053720 | 72 | 193 | 2.0 | 3.0 | 0.00 | 0.00 | 0.00 | 88 | 1012.4 |
| 20260505053216 | 72 | 225 | 0.0 | 0.0 | 0.00 | 0.00 | 0.00 | 88 | 1012.6 |
| 20260505052714 | 72 | 189 | 3.0 | 3.0 | 0.00 | 0.00 | 0.00 | 88 | 1012.4 |
| 20260505052210 | 72 | 156 | 2.0 | 3.0 | 0.00 | 0.00 | 0.00 | 88 | 1012.4 |
| 20260505051707 | 72 | 197 | 1.0 | 1.0 | 0.00 | 0.00 | 0.00 | 88 | 1012.3 |
| 20260505051206 | 72 | 195 | 3.0 | 3.0 | 0.00 | 0.00 | 0.00 | 88 | 1012.4 |
| 20260505050703 | 72 | 222 | 0.0 | 0.0 | 0.00 | 0.00 | 0.00 | 88 | 1012.7 |
| 20260505050201 | 72 | 215 | 2.0 | 2.0 | 0.00 | 0.00 | 0.00 | 88 | 1012.4 |
| 20260505041631 | 73 | 210 | 1.0 | 2.0 | 0.00 | 0.00 | 0.00 | 87 | 1012.4 |
| 20260505041128 | 73 | 190 | 5.0 | 8.0 | 0.00 | 0.00 | 0.00 | 86 | 1012.4 |
| 20260505040625 | 73 | 175 | 5.0 | 7.0 | 0.00 | 0.00 | 0.00 | 86 | 1012.2 |
| 20260505040122 | 73 | 180 | 6.0 | 9.0 | 0.00 | 0.00 | 0.00 | 86 | 1012.6 |
| 20260505035618 | 73 | 208 | 5.0 | 8.0 | 0.00 | 0.00 | 0.00 | 86 | 1012.2 |
| 20260505035115 | 73 | 215 | 2.0 | 2.0 | 0.00 | 0.00 | 0.00 | 86 | 1012.3 |
| 20260505034612 | 73 | 178 | 3.0 | 3.0 | 0.00 | 0.00 | 0.00 | 85 | 1012.3 |
| 20260505034108 | 73 | 133 | 3.0 | 5.0 | 0.00 | 0.00 | 0.00 | 84 | 1012.4 |
| 20260505033605 | 74 | 201 | 2.0 | 2.0 | 0.00 | 0.00 | 0.00 | 83 | 1012.2 |
| 20260505033104 | 74 | 210 | 3.0 | 3.0 | 0.00 | 0.00 | 0.00 | 83 | 1012.3 |
| 20260505032601 | 74 | 219 | 1.0 | 1.0 | 0.00 | 0.00 | 0.00 | 82 | 1012.4 |
| 20260505032057 | 74 | 204 | 0.0 | 1.0 | 0.00 | 0.00 | 0.00 | 82 | 1012.4 |
| 20260505031555 | 74 | 215 | 1.0 | 1.0 | 0.00 | 0.00 | 0.00 | 82 | 1012.3 |
| 20260505031051 | 74 | 197 | 2.0 | 2.0 | 0.00 | 0.00 | 0.00 | 82 | 1012.3 |
| 20260505030548 | 74 | 206 | 1.0 | 1.0 | 0.00 | 0.00 | 0.00 | 82 | 1012.2 |
| 20260505030044 | 74 | 215 | 1.0 | 2.0 | 0.00 | 0.00 | 0.00 | 81 | 1012.3 |
| 20260505025540 | 74 | 216 | 3.0 | 5.0 | 0.00 | 0.00 | 0.00 | 81 | 1012.0 |
| 20260505025039 | 74 | 222 | 3.0 | 6.0 | 0.00 | 0.00 | 0.00 | 81 | 1012.2 |
| 20260505024536 | 75 | 218 | 1.0 | 1.0 | 0.00 | 0.00 | 0.00 | 80 | 1012.2 |
| 20260505024032 | 75 | 159 | 4.0 | 6.0 | 0.00 | 0.00 | 0.00 | 80 | 1012.1 |
| 20260505023529 | 75 | 134 | 0.0 | 1.0 | 0.00 | 0.00 | 0.00 | 80 | 1012.2 |
| 20260505023027 | 75 | 174 | 2.0 | 2.0 | 0.00 | 0.00 | 0.00 | 79 | 1012.2 |
| 20260505022525 | 75 | 196 | 1.0 | 2.0 | 0.00 | 0.00 | 0.00 | 79 | 1012.2 |
| 20260505022022 | 75 | 206 | 2.0 | 2.0 | 0.00 | 0.00 | 0.00 | 78 | 1012.1 |
| 20260505021518 | 75 | 203 | 2.0 | 2.0 | 0.00 | 0.00 | 0.00 | 78 | 1012.1 |
| 20260505021014 | 75 | 216 | 1.0 | 1.0 | 0.00 | 0.00 | 0.00 | 78 | 1012.3 |
| 20260505020509 | 75 | 205 | 1.0 | 2.0 | 0.00 | 0.00 | 0.00 | 77 | 1012.0 |
| 20260505020006 | 75 | 181 | 0.0 | 0.0 | 0.00 | 0.00 | 0.00 | 77 | 1011.9 |
| 20260505015503 | 75 | 209 | 2.0 | 2.0 | 0.00 | 0.00 | 0.00 | 77 | 1012.1 |
| 20260505015000 | 76 | 209 | 0.0 | 0.0 | 0.00 | 0.00 | 0.00 | 76 | 1012.0 |
| 20260505014457 | 76 | 209 | 2.0 | 2.0 | 0.00 | 0.00 | 0.00 | 75 | 1012.1 |
| 20260505013954 | 76 | 209 | 1.0 | 1.0 | 0.00 | 0.00 | 0.00 | 74 | 1012.1 |
| 20260505013451 | 77 | 206 | 1.0 | 2.0 | 0.00 | 0.00 | 0.00 | 74 | 1011.8 |
| 20260505012949 | 77 | 214 | 0.0 | 0.0 | 0.00 | 0.00 | 0.00 | 74 | 1012.0 |
| 20260505012447 | 77 | 181 | 2.0 | 3.0 | 0.00 | 0.00 | 0.00 | 73 | 1011.8 |
| 20260505011943 | 77 | 192 | 3.0 | 3.0 | 0.00 | 0.00 | 0.00 | 72 | 1011.8 |
| 20260505011439 | 77 | 187 | 0.0 | 1.0 | 0.00 | 0.00 | 0.00 | 71 | 1011.8 |
| 20260505010936 | 77 | 199 | 1.0 | 1.0 | 0.00 | 0.00 | 0.00 | 71 | 1011.9 |
| 20260505010432 | 78 | 137 | 3.0 | 5.0 | 0.00 | 0.00 | 0.00 | 70 | 1011.7 |
| 20260505005928 | 78 | 168 | 2.0 | 2.0 | 0.00 | 0.00 | 0.00 | 70 | 1011.8 |
| 20260505005425 | 78 | 214 | 1.0 | 1.0 | 0.00 | 0.00 | 0.00 | 69 | 1011.7 |
| 20260505004923 | 78 | 196 | 3.0 | 5.0 | 0.00 | 0.00 | 0.00 | 68 | 1011.8 |
| 20260505004419 | 78 | 178 | 5.0 | 8.0 | 0.00 | 0.00 | 0.00 | 67 | 1011.9 |
| 20260505003916 | 79 | 216 | 2.0 | 2.0 | 0.00 | 0.00 | 0.00 | 67 | 1011.8 |
| 20260505003413 | 79 | 191 | 3.0 | 3.0 | 0.00 | 0.00 | 0.00 | 67 | 1011.8 |
| 20260505002909 | 79 | 205 | 2.0 | 3.0 | 0.00 | 0.00 | 0.00 | 66 | 1011.6 |
| 20260505002406 | 79 | 140 | 3.0 | 3.0 | 0.00 | 0.00 | 0.00 | 66 | 1011.7 |
| 20260505001904 | 79 | 204 | 0.0 | 1.0 | 0.00 | 0.00 | 0.00 | 66 | 1011.7 |
| 20260505001401 | 80 | 277 | 3.0 | 5.0 | 0.00 | 0.00 | 0.00 | 66 | 1011.5 |
| 20260505000858 | 79 | 199 | 1.0 | 2.0 | 0.00 | 0.00 | 0.00 | 66 | 1011.6 |
| 20260505000358 | 79 | 212 | 3.0 | 3.0 | 0.00 | 0.00 | 0.00 | 66 | 1011.7 |
| 20260504235852 | 79 | 205 | 2.0 | 3.0 | 0.00 | 0.00 | 0.00 | 66 | 1011.6 |
| 20260504235349 | 80 | 179 | 5.0 | 10.0 | 0.00 | 0.00 | 0.00 | 65 | 1011.8 |
| 20260504234846 | 80 | 143 | 5.0 | 6.0 | 0.00 | 0.00 | 0.00 | 65 | 1011.8 |
| 20260504234344 | 80 | 217 | 2.0 | 3.0 | 0.00 | 0.00 | 0.00 | 65 | 1012.0 |
| 20260504233840 | 81 | 186 | 5.0 | 9.0 | 0.00 | 0.00 | 0.00 | 65 | 1012.0 |
| 20260504233336 | 81 | 266 | 4.0 | 7.0 | 0.00 | 0.00 | 0.00 | 64 | 1012.0 |
| 20260504232833 | 81 | 196 | 1.0 | 2.0 | 0.00 | 0.00 | 0.00 | 64 | 1012.2 |
| 20260504232330 | 81 | 179 | 3.0 | 5.0 | 0.00 | 0.00 | 0.00 | 63 | 1012.1 |
| 20260504231826 | 82 | 189 | 1.0 | 1.0 | 0.00 | 0.00 | 0.00 | 64 | 1012.1 |
| 20260504231323 | 81 | 251 | 6.0 | 9.0 | 0.00 | 0.00 | 0.00 | 63 | 1012.2 |
| 20260504230819 | 82 | 105 | 5.0 | 7.0 | 0.00 | 0.00 | 0.00 | 63 | 1011.9 |
| 20260504230318 | 81 | 219 | 4.0 | 5.0 | 0.00 | 0.00 | 0.00 | 63 | 1012.3 |
| 20260504225816 | 82 | 220 | 2.0 | 3.0 | 0.00 | 0.00 | 0.00 | 62 | 1012.3 |
| 20260504225312 | 82 | 186 | 3.0 | 6.0 | 0.00 | 0.00 | 0.00 | 63 | 1012.4 |
| 20260504224809 | 83 | 170 | 6.0 | 8.0 | 0.00 | 0.00 | 0.00 | 62 | 1012.4 |
| 20260504224306 | 82 | 219 | 5.0 | 7.0 | 0.00 | 0.00 | 0.00 | 62 | 1012.4 |
| 20260504223803 | 82 | 284 | 5.0 | 8.0 | 0.00 | 0.00 | 0.00 | 62 | 1012.4 |
| 20260504223258 | 82 | 210 | 2.0 | 2.0 | 0.00 | 0.00 | 0.00 | 63 | 1013.0 |
| 20260504222755 | 82 | 186 | 9.0 | 14.0 | 0.00 | 0.00 | 0.00 | 62 | 1012.6 |
| 20260504222252 | 81 | 215 | 8.0 | 9.0 | 0.00 | 0.00 | 0.00 | 62 | 1012.9 |
| 20260504221750 | 82 | 172 | 7.0 | 8.0 | 0.00 | 0.00 | 0.00 | 62 | 1012.7 |
| 20260504221247 | 82 | 210 | 6.0 | 8.0 | 0.00 | 0.00 | 0.00 | 62 | 1012.8 |
| 20260504220743 | 82 | 199 | 5.0 | 9.0 | 0.00 | 0.00 | 0.00 | 61 | 1013.0 |
| 20260504220241 | 83 | 199 | 4.0 | 6.0 | 0.00 | 0.00 | 0.00 | 61 | 1012.8 |
| 20260504215738 | 84 | 180 | 4.0 | 9.0 | 0.00 | 0.00 | 0.00 | 60 | 1012.9 |
| 20260504215234 | 83 | 186 | 3.0 | 5.0 | 0.00 | 0.00 | 0.00 | 60 | 1013.0 |
| 20260504214730 | 84 | 193 | 1.0 | 2.0 | 0.00 | 0.00 | 0.00 | 61 | 1012.8 |
| 20260504214227 | 83 | 129 | 5.0 | 7.0 | 0.00 | 0.00 | 0.00 | 60 | 1013.0 |
| 20260504213724 | 84 | 214 | 1.0 | 1.0 | 0.00 | 0.00 | 0.00 | 62 | 1013.0 |
| 20260504213220 | 84 | 153 | 4.0 | 8.0 | 0.00 | 0.00 | 0.00 | 61 | 1012.9 |
| 20260504212717 | 83 | 181 | 6.0 | 11.0 | 0.00 | 0.00 | 0.00 | 61 | 1012.9 |
| 20260504212214 | 83 | 133 | 4.0 | 6.0 | 0.00 | 0.00 | 0.00 | 61 | 1013.0 |
| 20260504211711 | 82 | 121 | 7.0 | 9.0 | 0.00 | 0.00 | 0.00 | 62 | 1013.3 |
| 20260504211207 | 82 | 197 | 5.0 | 8.0 | 0.00 | 0.00 | 0.00 | 62 | 1013.3 |
| 20260504210705 | 83 | 152 | 8.0 | 10.0 | 0.00 | 0.00 | 0.00 | 62 | 1013.2 |
| 20260504210201 | 83 | 179 | 10.0 | 11.0 | 0.00 | 0.00 | 0.00 | 60 | 1013.4 |
| 20260504205659 | 83 | 184 | 2.0 | 2.0 | 0.00 | 0.00 | 0.00 | 62 | 1013.5 |
| 20260504205155 | 83 | 185 | 1.0 | 2.0 | 0.00 | 0.00 | 0.00 | 63 | 1013.9 |
| 20260504204654 | 83 | 214 | 5.0 | 7.0 | 0.00 | 0.00 | 0.00 | 60 | 1013.8 |
| 20260504204153 | 83 | 229 | 2.0 | 3.0 | 0.00 | 0.00 | 0.00 | 61 | 1013.8 |
| 20260504203651 | 83 | 210 | 2.0 | 2.0 | 0.00 | 0.00 | 0.00 | 61 | 1013.8 |
| 20260504203148 | 83 | 206 | 1.0 | 2.0 | 0.00 | 0.00 | 0.00 | 61 | 1013.9 |
| 20260504202643 | 83 | 165 | 7.0 | 10.0 | 0.00 | 0.00 | 0.00 | 61 | 1014.4 |
| 20260504202140 | 83 | 144 | 5.0 | 6.0 | 0.00 | 0.00 | 0.00 | 62 | 1014.3 |
| 20260504201637 | 83 | 224 | 2.0 | 3.0 | 0.00 | 0.00 | 0.00 | 61 | 1014.2 |
| 20260504201135 | 83 | 164 | 5.0 | 6.0 | 0.00 | 0.00 | 0.00 | 61 | 1014.5 |
| 20260504200632 | 82 | 165 | 8.0 | 9.0 | 0.00 | 0.00 | 0.00 | 61 | 1014.7 |
| 20260504200128 | 82 | 147 | 7.0 | 8.0 | 0.00 | 0.00 | 0.00 | 60 | 1014.5 |
| 20260504195624 | 83 | 192 | 3.0 | 5.0 | 0.00 | 0.00 | 0.00 | 60 | 1014.7 |
| 20260504195120 | 83 | 214 | 4.0 | 6.0 | 0.00 | 0.00 | 0.00 | 61 | 1014.8 |
| 20260504194617 | 83 | 227 | 4.0 | 7.0 | 0.00 | 0.00 | 0.00 | 61 | 1014.7 |
| 20260504194113 | 81 | 161 | 4.0 | 5.0 | 0.00 | 0.00 | 0.00 | 63 | 1014.9 |
| 20260504193609 | 81 | 234 | 5.0 | 7.0 | 0.00 | 0.00 | 0.00 | 63 | 1015.1 |
| 20260504193108 | 82 | 223 | 6.0 | 7.0 | 0.00 | 0.00 | 0.00 | 62 | 1015.1 |
| 20260504192606 | 82 | 267 | 0.0 | 1.0 | 0.00 | 0.00 | 0.00 | 62 | 1015.2 |
| 20260504192104 | 80 | 214 | 2.0 | 3.0 | 0.00 | 0.00 | 0.00 | 64 | 1015.0 |
| 20260504191602 | 80 | 162 | 5.0 | 7.0 | 0.00 | 0.00 | 0.00 | 64 | 1015.1 |
| 20260504191058 | 81 | 136 | 8.0 | 10.0 | 0.00 | 0.00 | 0.00 | 63 | 1015.5 |
| 20260504190554 | 81 | 206 | 1.0 | 1.0 | 0.00 | 0.00 | 0.00 | 65 | 1015.4 |
| 20260504190050 | 80 | 227 | 5.0 | 6.0 | 0.00 | 0.00 | 0.00 | 63 | 1015.6 |
| 20260504185547 | 82 | 220 | 4.0 | 7.0 | 0.00 | 0.00 | 0.00 | 64 | 1015.8 |
| 20260504185044 | 81 | 211 | 3.0 | 6.0 | 0.00 | 0.00 | 0.00 | 63 | 1015.8 |
| 20260504184539 | 82 | 206 | 2.0 | 3.0 | 0.00 | 0.00 | 0.00 | 63 | 1015.8 |
| 20260504184035 | 80 | 143 | 5.0 | 7.0 | 0.00 | 0.00 | 0.00 | 63 | 1015.5 |
| 20260504183532 | 81 | 277 | 2.0 | 2.0 | 0.00 | 0.00 | 0.00 | 64 | 1015.9 |
| 20260504183030 | 80 | 261 | 2.0 | 2.0 | 0.00 | 0.00 | 0.00 | 64 | 1015.8 |
| 20260504182527 | 81 | 203 | 3.0 | 3.0 | 0.00 | 0.00 | 0.00 | 63 | 1016.0 |
| 20260504182024 | 81 | 178 | 2.0 | 3.0 | 0.00 | 0.00 | 0.00 | 62 | 1016.2 |
| 20260504181521 | 80 | 203 | 4.0 | 6.0 | 0.00 | 0.00 | 0.00 | 63 | 1016.2 |
| 20260504181020 | 80 | 201 | 3.0 | 5.0 | 0.00 | 0.00 | 0.00 | 64 | 1016.4 |
| 20260504180518 | 81 | 207 | 4.0 | 6.0 | 0.00 | 0.00 | 0.00 | 64 | 1016.2 |
| 20260504180017 | 80 | 213 | 2.0 | 3.0 | 0.00 | 0.00 | 0.00 | 66 | 1016.3 |
| 20260504175513 | 80 | 139 | 6.0 | 8.0 | 0.00 | 0.00 | 0.00 | 64 | 1016.3 |
| 20260504175010 | 79 | 239 | 0.0 | 0.0 | 0.00 | 0.00 | 0.00 | 69 | 1016.3 |
| 20260504174508 | 79 | 190 | 5.0 | 6.0 | 0.00 | 0.00 | 0.00 | 66 | 1016.5 |
| 20260504174005 | 78 | 199 | 7.0 | 10.0 | 0.00 | 0.00 | 0.00 | 66 | 1016.5 |
| 20260504173501 | 77 | 211 | 1.0 | 3.0 | 0.00 | 0.00 | 0.00 | 70 | 1016.7 |
| 20260504172959 | 77 | 210 | 6.0 | 8.0 | 0.00 | 0.00 | 0.00 | 68 | 1017.4 |
| 20260504172455 | 76 | 215 | 1.0 | 1.0 | 0.00 | 0.00 | 0.00 | 71 | 1017.1 |
| 20260504171951 | 77 | 205 | 5.0 | 7.0 | 0.00 | 0.00 | 0.00 | 69 | 1017.3 |
| 20260504171449 | 76 | 196 | 2.0 | 3.0 | 0.00 | 0.00 | 0.00 | 70 | 1017.5 |
| 20260504170945 | 76 | 206 | 5.0 | 7.0 | 0.00 | 0.00 | 0.00 | 71 | 1017.5 |
| 20260504170442 | 76 | 207 | 5.0 | 7.0 | 0.00 | 0.00 | 0.00 | 71 | 1017.6 |
| 20260504160401 | 75 | 216 | 3.0 | 3.0 | 0.00 | 0.00 | 0.00 | 72 | 1018.0 |